Jaipur, India

3:11 PM IST on March 24, 2017 (GMT +0530)
Jaipur

Weather History for VIJP - February, 2014

Change the Weather History Date:

Friday, February 7, 2014

  Actual Average Record
Temperature  
Mean Temperature 68 °F -  
Max Temperature 79 °F - - ()
Min Temperature 58 °F - - ()
Cooling Degree Days 4    
Growing Degree Days 18 (Base 50)    
Moisture  
Dew Point 54 °F    
Average Humidity 62    
Maximum Humidity 94    
Minimum Humidity 26    
Precipitation  
Precipitation 0.00 in - - ()
Sea Level Pressure  
Sea Level Pressure 29.83 in    
Wind  
Wind Speed 7 mph ()    
Max Wind Speed 21 mph    
Max Gust Speed -    
Visibility 1.7 miles    
Events Fog    
T = Trace of Precipitation, MM = Missing Value Source: Averaged Metar Reports

Daily Weather History Graph

Daily Weather History Graph

Search for Another Location

Airport or City:

Trip Planner

Search our weather history database for the weather conditions in past years. The results will help you decide how hot, cold, wet, or windy it might be!

Date:

Astronomy

Feb. 07, 2014 Rise Set
Actual Time 7:08 AM IST 6:13 PM IST
Civil Twilight 6:44 AM IST 6:37 PM IST
Nautical Twilight 6:17 AM IST 7:04 PM IST
Astronomical Twilight 5:50 AM IST 7:32 PM IST
Moon 12:10 PM IST (2/7) 12:55 AM IST (2/7)
Length of Visible Light 11h 52m
Length of Day
11h 04m
First Quarter, 55% of the Moon is Illuminated
Feb 7
First Quarter
Feb 15
Full
Feb 22
Last Quarter
Mar 1
New
Mar 8
First Quarter

Hourly Weather History & Observations

Time (IST) Temp. Dew Point Humidity Pressure Visibility Wind Dir Wind Speed Gust Speed Precip Events Conditions
12:00 AM 66.2 °F 59.0 °F 78% 29.83 in 1.6 mi East 9.2 mph - N/A   Scattered Clouds
1:00 AM 66.2 °F 59.0 °F 78% 29.83 in 1.6 mi East 8.1 mph - N/A   Scattered Clouds
2:00 AM 66.2 °F 59.0 °F 78% 29.83 in 1.6 mi East 8.1 mph - N/A   Scattered Clouds
2:30 AM 65 °F 59 °F 74% 29.78 in 1 mi East 4.6 mph - -   Mist
3:00 AM 64.4 °F 57.2 °F 77% 29.80 in 1.2 mi East 8.1 mph - N/A   Scattered Clouds
4:00 AM 62.6 °F 57.2 °F 82% 29.80 in 1.2 mi ESE 5.8 mph - N/A   Scattered Clouds
5:00 AM 60.8 °F 57.2 °F 88% 29.80 in 1.2 mi Variable 3.5 mph - N/A   Scattered Clouds
5:30 AM 60 °F 57 °F 87% 29.80 in 1 mi East 3.5 mph - -   Mist
5:30 AM 59.0 °F 57.2 °F 94% 29.83 in 1.2 mi ESE 3.5 mph - N/A   Scattered Clouds
6:00 AM 60.8 °F 57.2 °F 88% 29.83 in 1.2 mi ESE 5.8 mph - N/A   Scattered Clouds
7:00 AM 59.0 °F 57.2 °F 94% 29.83 in 1.2 mi ESE 4.6 mph - N/A   Scattered Clouds
8:00 AM 60.8 °F 59.0 °F 94% 29.89 in 0.5 mi Calm Calm - N/A Fog Shallow Fog
8:30 AM 63 °F 58 °F 80% 29.84 in 1 mi Calm Calm - - Fog Patches of Fog
8:30 AM 66.2 °F 59.0 °F 78% 29.89 in 0.5 mi Calm Calm - N/A Fog Shallow Fog
9:00 AM 66.2 °F 59.0 °F 78% 29.89 in 0.5 mi SSW 3.5 mph - N/A Fog Shallow Fog
10:30 AM 69.8 °F 57.2 °F 64% 29.89 in 2.5 mi West 11.5 mph - N/A   Haze
11:00 AM 71.6 °F 57.2 °F 60% 29.89 in 2.5 mi West 12.7 mph - N/A   Haze
11:30 AM 74 °F 56 °F 43% 29.83 in 2 mi West 15.0 mph - -   Haze
12:00 PM 75.2 °F 53.6 °F 47% 29.89 in 2.5 mi West 17.3 mph - N/A   Haze
1:00 PM 77.0 °F 53.6 °F 44% 29.86 in 2.5 mi West 13.8 mph - N/A   Haze
1:30 PM 77.0 °F 51.8 °F 41% 29.83 in 2.5 mi West 13.8 mph - N/A   Haze
2:00 PM 75.2 °F 50.0 °F 41% 29.83 in 2.5 mi West 19.6 mph - N/A   Haze
2:30 PM 77 °F 51 °F 30% 29.77 in 2 mi West 20.7 mph - -   Haze
3:00 PM 77.0 °F 48.2 °F 36% 29.80 in 2.5 mi West 20.7 mph - N/A   Haze
4:00 PM 77.0 °F 48.2 °F 36% 29.80 in 2.5 mi West 19.6 mph - N/A   Haze
5:00 PM 77.0 °F 46.4 °F 34% 29.80 in 2.5 mi West 17.3 mph - N/A   Haze
5:30 PM 76 °F 48 °F 26% 29.75 in 2 mi WNW 11.5 mph - -   Haze
6:00 PM 73.4 °F 46.4 °F 38% 29.80 in 2.5 mi WNW 9.2 mph - N/A   Haze
7:00 PM 71.6 °F 44.6 °F 38% 29.83 in 2.2 mi WNW 6.9 mph - N/A   Haze
8:00 PM 68.0 °F 44.6 °F 43% 29.83 in 2.2 mi NW 5.8 mph - N/A   Haze
8:30 PM 67 °F 51 °F 45% 29.81 in 1 mi NNW 4.6 mph - -   Haze
9:00 PM 68.0 °F 50.0 °F 52% 29.86 in 2.2 mi NNW 5.8 mph - N/A   Haze
9:30 PM 68.0 °F 51.8 °F 56% 29.86 in 2.2 mi Variable 8.1 mph - N/A   Haze
11:00 PM 64.4 °F 53.6 °F 68% 29.86 in 1.9 mi Variable 6.9 mph - N/A   Haze
11:30 PM 64 °F 55 °F 66% 29.83 in 1 mi NE 4.6 mph - -   Haze
11:30 PM 64.4 °F 53.6 °F 68% 29.86 in 1.9 mi NE 4.6 mph - N/A   Haze